Preview of NWS' New Version of Forecast
This preview is not operational and should not be used for support decisions.

Regional Weather Roundup (RWR)

Issued by National Weather Service (NWS)

                            
000
ASUS46 KPQR 181610
RWROR 

OREGON REGIONAL WEATHER ROUNDUP
NATIONAL WEATHER SERVICE PORTLAND OR
800 AM PST MON FEB 18 2019

NOTE: "FAIR" INDICATES FEW OR NO CLOUDS BELOW 12,000 FEET WITH
NO SIGNIFICANT WEATHER AND/OR OBSTRUCTIONS TO VISIBILITY.

ORZ001>013-181700-
NORTHWEST OREGON

  
CITY           SKY/WX    TMP DP  RH WIND       PRES   REMARKS
ASTORIA        CLOUDY    35  33  92 CALM      30.41R                  
TILLAMOOK      CLOUDY    30  30 100 SE3       30.44R                  
NEWPORT        CLEAR     32  32 100 E7        30.43R                  
PORTLAND       FOG       31  30  96 CALM      30.44R VSB 1/4          
VANCOUVER WA   FOG       31  30  96 CALM      30.44R VSB 1/2          
SCAPPOOSE      FOG       30  28  92 CALM      30.43R VSB<1/4          
HILLSBORO      FOG       28  27  96 CALM      30.42R VSB 1/4          
AURORA         FOG       28  28 100 CALM      30.44R VSB 1/4          
MCMINNVILLE    FOG       29  27  92 S3        30.42R VSB 1/4          
SALEM          CLOUDY    33  30  88 SE5       30.42R                  
CORVALLIS      FOG       31  30  96 NE3       30.43R VSB 1/4          
EUGENE         CLOUDY    34  32  92 CALM      30.42R                  
$$

ORZ021-028-181700-
SOUTHWEST OREGON

  
CITY           SKY/WX    TMP DP  RH WIND       PRES   REMARKS
NORTH BEND     CLEAR     31  31 100 S5        30.43R                  
BROOKINGS      CLEAR     34  28  79 E5        30.35R                  
ROSEBURG       CLOUDY    34  32  92 CALM      30.41R                  
SEXTON SUMMIT  SNOW      23  22  96 CALM      30.22R VSB 1/2          
GRANTS PASS    FOG       28  27  93 CALM      30.40  VSB 3/4          
MEDFORD        CLOUDY    30  27  88 CALM      30.36R                  
$$

ORZ014>016-041-181700-
COLUMBIA GORGE

  
CITY           SKY/WX    TMP DP  RH WIND       PRES   REMARKS
TROUTDALE      FOG       33  32  96 CALM      30.44R VSB 1/4          
HOOD RIVER     CLOUDY    32  32 100 CALM      30.41R FOG              
THE DALLES     CLOUDY    33  31  92 CALM      30.42R FOG              
$$

ORZ029>031-041-044-049-050-061>064-502-503-505>511-181700-
EASTERN OREGON

  
CITY           SKY/WX    TMP DP  RH WIND       PRES   REMARKS
MADRAS         NOT AVBL                                               
REDMOND        MOCLDY    27  24  89 NW7       30.27R                  
BEND           CLOUDY    27  23  86 N7        30.25R                  
PRINEVILLE     CLOUDY    27  25  93 W6        30.26                   
KLAMATH FALLS  CLEAR     19  16  88 NW7       30.21R                  
LAKEVIEW       FLURRIES  25  20  81 N12       30.14R WCI  14          
HERMISTON      PTCLDY    24  20  84 CALM      30.41R                  
PENDLETON      CLOUDY    24  20  84 CALM      30.35R                  
JOHN DAY       CLOUDY    26  19  76 N6        30.20                   
MEACHAM        LGT SNOW  20  16  84 CALM      30.21R FOG              
LA GRANDE      FLURRIES  25  17  72 W14G20    30.26R WCI  13          
BAKER CITY     CLOUDY    26  15  63 NW18      30.18R WCI  13          
BURNS          MOSUNNY   22  15  75 NW9       30.15R                  
ROME             N/A     13   7  77 S6        30.12R                  
ONTARIO        PTSUNNY   32  20  61 NW10      30.19R WCI  24          
$$